Retour au catalogue

STARLINK-36278

ActifCommunicationsSSO
NORAD 68685·PAYLOAD·🇺🇸 United States

Lancé Apr 11, 2026 depuis Vandenberg Space Force Base

Loading…

Prochains Passages (prochaines 24 heures)

TLE

FraisSource: CelesTrak SupGP

Époque: Sep 15, 2026, 02:56 UTC

1 68685C 26077Z   26258.12270833  .00108810  00000+0  33803-2 0  2588
2 68685  97.2846 131.1233 0002087  89.7021  56.0471 15.33359123    18

Suivez STARLINK-36278 en temps réel avec AllMySat

Download on the App Store